Volver al catálogo

STARLINK-36727

ActivoComunicacionesVLEO
NORAD 67875·PAYLOAD·🇺🇸 United States

Lanzado Feb 20, 2026 desde Vandenberg Space Force Base

Loading…

Próximos Pases (próximas 24 horas)

TLE

ActualizadoSource: CelesTrak SupGP

Época: Sep 15, 2026, 04:13 UTC

1 67875C 26034AB  26258.17618056  .00021323  00000+0  68571-3 0  2583
2 67875  53.1603  42.3306 0001134  83.3826 207.2994 15.31690059    13

Sigue STARLINK-36727 en tiempo real con AllMySat

Download on the App Store